sat.trackr.live / text

‹ back to catalog

STARLINK-31634

NORAD 59330 · 2024-057L

PAYLOAD ACTIVE UNKNOWN

§ Identity

Operator
Country
US
Launch date
2024-03-25
Launch site
AFETR
Launch vehicle
Mass (kg)
RCS (m²)

Purposes: comms

External: N2YO · Heavens-Above · Gunter

§ Orbital elements

Epoch: 2026-05-24T23:26:44.348352Z

Period
94.27 min
Inclination
43.0025°
Eccentricity
0.0001006
Mean motion
15.27578297 rev/d
Perigee alt
482.4 km
Apogee alt
483.7 km
Semi-major
6,861.2 km
B*
-3.6722e-6
RAAN
116.4626°
Arg perigee
291.3196°
Mean anomaly
68.7548°
Rev number
12,150

§ Raw data

STARLINK-316341 59330U 24057L   26144.97690218 -.00000363  00000+0 -36722-5 0  99952 59330  43.0025 116.4626 0001006 291.3196  68.7548 15.27578297121500

JSON: /api/v1/satellites/59330 · /tle

For live sub-satellite position, see the globe view (requires WebGL).

§ Visibility from observer

Set your observer location to see the next 7 days of passes ≥ 10°. The values pass through the URL so the page stays shareable.

No JS? Fill the form by hand. The geolocation button needs JavaScript.